Envisat - Orbit

View from above orbital plane
View from above orbital plane
View from above satellite
View from above satellite

Ground track
Ground track

The orbit data is extracted from the following two-line orbital elements,

1 27386U 02009A   13145.13484618  .00000099  00000-0  47351-4 0  4094
2 27386 098.4294 213.8927 0001184 088.2558 271.8779 14.37611771587825
Epoch (UTC): 25 May 2013 03:14:10
Eccentricity: 0.0001184
inclination: 98.4294°
perigee height: 765 km
apogee height: 767 km
right ascension of ascending node: 213.8927°
argument of perigee: 88.2558°
revolutions per day: 14.37611771
mean anomaly at epoch: 271.8779°
orbit number at epoch: 58782

The dashed part of the orbit path shows where the satellite is in the earth's shadow,  

Developed and maintained by Chris Peat, Heavens-Above GmbH. Please read the updated FAQ before sending e-mail. Imprint. DLR